Regional Weather Roundup
Issued by NWS Charleston, SC

Current Version | Previous Version | Graphics & Text | Print | Product List | Glossary On
Versions: 1 2 3 4 5 6 7 8 9 10 11 12 13 14 15 16 17 18 19 20 21 22 23 24 25 26 27 28 29 30 31 32 33 34 35 36 37 38 39 40 41 42 43 44 45 46 47 48 49 50
000
ASUS42 KCHS 070327
RWRCHS

REGIONAL WEATHER ROUNDUP
NATIONAL WEATHER SERVICE CHARLESTON SC
1100 PM EDT MON JUL 06 2015

NOTE: "FAIR" INDICATES FEW OR NO CLOUDS BELOW 12,000 FEET WITH NO
SIGNIFICANT WEATHER AND/OR OBSTRUCTIONS TO VISIBILITY.

NOT ALL STATIONS ARE QUALITY CONTROLLED BY THE NATIONAL
WEATHER SERVICE. USE DATA WITH CAUTION...ESPECIALLY
DEWPOINT OBSERVATIONS.

SCZ027-030-031-034>040-042>050-070400-
...SOUTHEAST SOUTH CAROLINA...

CITY           SKY/WX    TMP DP  RH WIND       PRES   REMARKS
N CHARLESTON   PTCLDY    77  72  84 S6        30.10S
WATERFRONT PAR   N/A     79  74  85 VRB2      30.08S
MOUNT PLEASANT FAIR      75  73  94 CALM      30.10F
JOHNS ISLAND   FAIR      79  73  83 SW5       30.11R
PINOPOLIS      NOT AVBL
MONCKS CORNER  FAIR      77  72  83 CALM      30.10F
SUMMERVILLE    FAIR      77  75  94 CALM      30.11S
BEAUFORT MCAS  CLOUDY    79  73  82 S5        30.11S
BEAUFORT ARPT  FAIR      79  73  83 CALM      30.11S
HILTON HEAD IS MOCLDY    79  73  83 S6        30.13S
WALTERBORO     MOCLDY    75  72  88 S6        30.11S
ALLENDALE      FAIR      79  75  89 CALM      30.10S

...SOUTHERN MIDLANDS AND PEE DEE...

CITY           SKY/WX    TMP DP  RH WIND       PRES   REMARKS
GEORGETOWN     NOT AVBL
KINGSTREE      NOT AVBL
ORANGEBURG     PTCLDY    76  72  87 S6        30.11R
BARNWELL       FAIR      79  73  83 S3        30.11S
AIKEN          NOT AVBL
MANNING        FAIR      77  72  83 S6        30.10S
COLUMBIA       CLEAR     79  69  71 S6        30.08R
SUMTER         PTCLDY    78  71  81 S5        30.07S
FLORENCE       CLEAR     77  72  84 S5        30.09S
MYRTLE BEACH   CLEAR     79  70  73 SW7         N/A
N MYRTLE BEACH CLEAR     80  72  76 SW9       30.10S

$$

GAZ063-065-086>088-099>101-113>116-118-119-134>141-150-070400-
...SOUTHEAST GEORGIA...

CITY           SKY/WX    TMP DP  RH WIND       PRES   REMARKS
SAVANNAH ARPT  CLOUDY    74  70  87 S5        30.13R
HUNTER AAF     MOCLDY    74  74 100 S3        30.10S
FORT STEWART   MOCLDY    76  72  86 S6        30.10R
STATESBORO     NOT AVBL
SYLVANIA       PTCLDY    78  73  86 CALM      30.12S
CLAXTON        CLOUDY    77  73  88 S3        30.12S

...CSRA...CENTRAL AND FAR SOUTHEAST GEORGIA...

CITY           SKY/WX    TMP DP  RH WIND       PRES   REMARKS
THOMSON        CLEAR     76  74  93 CALM      30.14S
AUGUSTA-BUSH   LGT RAIN  73  70  90 S3        30.09R
AUGUSTA-DANIEL PTCLDY    80  69  69 S5        30.10S
SWAINSBORO     FAIR     N/A N/A N/A CALM      30.12S
VIDALIA        CLEAR     77  70  78 CALM      30.12S
EASTMAN        FAIR      74  74 100 CALM      30.14S
HAZLEHURST     FAIR      77  75  95 CALM      30.11S
ALMA           PTCLDY    74  72  93 CALM      30.12R
WAYCROSS       PTCLDY    78  76  95 CALM      30.12S
JESUP          CLOUDY    79  73  83 S5        30.13S
BAXLEY         FAIR      77  73  88 CALM      30.12S
BRUNSWICK      CLOUDY    77  72  83 CALM      30.13F
SAINT SIMONS   CLOUDY    77  70  79 CALM      30.13R

$$

SCZ027-028-034-036>038-045-046-048>050-GAZ119-141-070400-
...LAKE AND SUPPLEMENTAL COASTAL OBSERVATIONS...

STATION/POSITION TIME  TEMP    WIND        PRES    WAVE   SWELL
                       AIR SEA DIR/SP/G            HT/PER HT/PER/DIR
                 (UTC) (F)     (DEG/KT/KT) (MB)    (FT/S) (FT/S/D)
UPR LAKE MARION  NOT AVBL
WINYAH BAY       0200   78     210/  5     1018.0
LAKE MURRAY      0200   83     190/  7/  8 1017.9R
ACE BASIN NERRS  NOT AVBL
FORT PULASKI     0300   78 83  170/  5/  8 1020.4R
SAPELO ISLAND    0300   77     150/  3     1020.0S

$$

ANZ835-935-AMZ111-154-330-350-352-354-370-450-454-472-070400-
...C-MAN AND BUOY OBSERVATIONS...

STATION/POSITION TIME  TEMP    WIND        PRES    WAVE   SWELL
                       AIR SEA DIR/SP/G            HT/PER HT/PER/DIR
                 (UTC) (F)     (DEG/KT/KT) (MB)    (FT/S) (FT/S/D)
BUOY 41004       0250   81 83  190/ 14/ 16 1019.0R   3/ 8   2/ 8
BUOY 41008       0250   79 79  210/ 16/ 17 1020.0S   2/ 9   2/110/ 9
FOLLY BEACH CMAN 0300   80     230/  8/ 12 1019.4F
CAPERS NEARSHORE 0208   80     220/ 14/ 17 1019.3F
FRIPP NEARSHORE  0200   80     220/ 14/ 16 1019.5S


STATION/POSITION TIME  TEMP    WIND        PRES    WAVE   SWELL
                       AIR SEA DIR/SP/G            HT/PER HT/PER/DIR
                 (UTC) (F)     (DEG/KT/KT) (MB)    (FT/S) (FT/S/D)
5E ST. MARYS GA  0221      78                N/A     2/ 3
FRYING PAN BUOY  0250   81 80  200/ 12/ 14 1019.8S   3/ 7   2/130/ 7
BUOY 41025       0250   81 81  200/ 16/ 17 1019.5R   3/ 4   2/110/ 9
CAPE LOOKOUT NC  0300   80     210/ 12/ 14 1019.2R
BUOY 41002       0250   81 80  190/  8/ 10 1021.8R   4/ 8   3/130/ 8
BUOY 41010       0220   82 84  140/  6/  8 1021.6S
ST AUGUSTINE FL  0300   72 73  220/  4/  6 1021.6S


$$


USA.gov is the U.S. government's official web portal to all federal, state and local government web resources and services.